Weather History for LIVC - April, 2014

Change the Weather History Date:

Saturday, April 26, 2014

  Actual Average Record
Temperature  
Mean Temperature 40 °F -  
Max Temperature 43 °F 41 °F 46 °F (1998)
Min Temperature 38 °F 33 °F 24 °F (2004)
Degree Days  
Heating Degree Days 24    
Moisture  
Dew Point 37 °F    
Average Humidity 85    
Maximum Humidity 100    
Minimum Humidity 69    
Precipitation  
Precipitation 0.04 in 0.07 in - ()
Sea Level Pressure  
Sea Level Pressure 29.95 in    
Wind  
Wind Speed 10 mph ()    
Max Wind Speed 24 mph    
Max Gust Speed -    
Visibility 4.9 miles    
Events Fog , Rain    
Averages and records for this station are not official NWS values.
T = Trace of Precipitation, MM = Missing Value Source: Averaged Metar Reports

Daily Weather History Graph

Daily Weather History Graph

Search for Another Location

Airport or City:

Trip Planner

Search our weather history database for the weather conditions in past years. The results will help you decide how hot, cold, wet, or windy it might be!

Date:

Astronomy

Apr. 26, 2014 Rise Set
Actual Time 6:16 AM CEST 8:14 PM CEST
Civil Twilight 5:45 AM CEST 8:45 PM CEST
Nautical Twilight 5:06 AM CEST 9:24 PM CEST
Astronomical Twilight 4:25 AM CEST 10:06 PM CEST
Moon 4:37 AM CEST (4/26) 5:18 PM CEST (4/26)
Length of Visible Light 15h 00m
Length of Day
13h 58m
Waning Crescent, 10% of the Moon is Illuminated
Apr 26
Waning Crescent
Apr 29
New
May 7
First Quarter
May 14
Full
May 21
Last Quarter

Hourly Weather History & Observations

Time (CEST) Temp. Windchill Dew Point Humidity Pressure Visibility Wind Dir Wind Speed Gust Speed Precip Events Conditions
12:00 AM 41 °F - 37 °F 80%  in 19 mi Calm Calm - -   Scattered Clouds
12:55 AM 41.0 °F - 37.4 °F 87% 29.95 in - Calm Calm - N/A   Clear
1:00 AM 40 °F - 37 °F 85%  in 19 mi Calm Calm - -  
1:55 AM 39.2 °F 30.2 °F 37.4 °F 93% 29.95 in - WSW 17.3 mph - N/A   Clear
2:00 AM 40 °F - 38 °F 89%  in 19 mi WSW 17.3 mph - -   Partly Cloudy
2:55 AM 39.2 °F 29.3 °F 33.8 °F 81% 29.92 in - WNW 20.7 mph - N/A   Clear
3:00 AM 39 °F - 34 °F 75%  in 19 mi WNW 20.7 mph - -  
3:55 AM 39.2 °F 28.7 °F 35.6 °F 87% 29.92 in 6.2 mi WNW 23.0 mph - N/A   Partly Cloudy
4:00 AM 39 °F - 35 °F 79%  in 19 mi WNW 23.0 mph - -   Scattered Clouds
4:55 AM 39.2 °F 28.7 °F 35.6 °F 87% 29.92 in 6.2 mi WNW 23.0 mph - N/A   Partly Cloudy
5:00 AM 38 °F - 36 °F 88%  in 19 mi WNW 23.0 mph - -   Scattered Clouds
5:55 AM 39.2 °F 29.8 °F 37.4 °F 93% 29.92 in 0.1 mi NW 18.4 mph - N/A Fog Fog
6:00 AM 39 °F - 38 °F 92%  in 0 mi NW 18.4 mph - - Fog Heavy Fog
6:55 AM 39.2 °F 30.5 °F 37.4 °F 93% 29.92 in 0.1 mi North 16.1 mph - N/A Fog Fog
7:00 AM 39 °F - 37 °F 92%  in 0 mi North 16.1 mph - - Fog Heavy Fog
7:55 AM 39.2 °F 29.3 °F 39.2 °F 100% 29.92 in 0.1 mi North 20.7 mph - N/A Fog Fog
8:00 AM 40 °F - 38 °F 92%  in 0 mi North 20.7 mph - - Fog Heavy Fog
8:55 AM 39.2 °F 29.8 °F 39.2 °F 100% 29.95 in 0.0 mi North 18.4 mph - N/A Fog Fog
9:00 AM 40 °F - 39 °F 95%  in 0 mi North 18.4 mph - - Fog Heavy Fog
9:55 AM 39.2 °F 28.5 °F 39.2 °F 100% 29.95 in 0.0 mi North 24.2 mph - N/A Fog Fog
10:00 AM 40 °F - 39 °F 94%  in 0 mi North 24.2 mph - - Fog Heavy Fog
10:55 AM 41.0 °F 31.4 °F 37.4 °F 87% 29.95 in 0.1 mi North 21.9 mph - N/A Fog Fog
11:00 AM 41 °F - 37 °F 80%  in 0 mi North 21.9 mph - - Fog Heavy Fog
11:55 AM 41.0 °F 32.8 °F 37.4 °F 87% 29.98 in 0.1 mi North 16.1 mph - N/A Fog Fog
12:00 PM 41 °F - 37 °F 81%  in 0 mi North 16.1 mph - - Fog Heavy Fog
12:55 PM 41.0 °F 33.9 °F 37.4 °F 87% 29.98 in 0.1 mi North 12.7 mph - N/A Fog Fog
1:00 PM 41 °F - 38 °F 84%  in 0 mi North 12.7 mph - - Fog Heavy Fog
1:55 PM 41.0 °F - 39.2 °F 93% 29.98 in 0.1 mi Calm Calm - N/A Fog , Rain Light Rain
2:00 PM 41 °F - 39 °F 91%  in 0 mi Calm Calm - - Rain Light Rain
2:55 PM 42.8 °F - 39.2 °F 87% 29.98 in 0.1 mi Calm Calm - N/A Fog Fog
3:00 PM 42 °F - 39 °F 83%  in 0 mi Calm Calm - - Fog Heavy Fog
3:55 PM 42.8 °F - 39.2 °F 87% 29.98 in 0.1 mi Calm Calm - N/A Fog Fog
4:00 PM 43 °F - 39 °F 81%  in 0 mi Calm Calm - - Fog Heavy Fog
4:55 PM 42.8 °F - 39.2 °F 87% 29.98 in 0.1 mi Calm Calm - N/A Fog Fog
5:00 PM 43 °F - 40 °F 83%  in 0 mi Calm Calm - - Fog Heavy Fog
5:55 PM 42.8 °F - 39.2 °F 87% 29.95 in 0.1 mi Calm Calm - N/A Fog Fog
6:00 PM 43 °F - 39 °F 81%  in 0 mi Calm Calm - -  
6:55 PM 42.8 °F - 35.6 °F 76% 29.95 in 6.2 mi Calm Calm - N/A   Scattered Clouds
7:00 PM 43 °F - 36 °F 69%  in 9 mi Calm Calm - - Fog Light Fog
7:55 PM 42.8 °F - 37.4 °F 81% 29.92 in 6.2 mi Calm Calm - N/A   Scattered Clouds
8:00 PM 43 °F - 37 °F 72%  in 12 mi Calm Calm - -   Partly Cloudy
8:55 PM 42.8 °F - 35.6 °F 76% 29.95 in 6.2 mi Calm Calm - N/A   Mostly Cloudy
9:00 PM 42 °F - 36 °F 72%  in 12 mi Calm Calm - -   Mostly Cloudy
9:55 PM 42.8 °F - 35.6 °F 76% 29.95 in 6.2 mi Calm Calm - N/A   Mostly Cloudy
10:00 PM 43 °F - 36 °F 70%  in 12 mi Calm Calm - -   Mostly Cloudy
10:55 PM 42.8 °F - 35.6 °F 76% 29.92 in 6.2 mi Calm Calm - N/A   Scattered Clouds
11:00 PM 43 °F - 36 °F 70%  in 12 mi Calm Calm - -   Partly Cloudy
11:55 PM 42.8 °F - 35.6 °F 76% 29.92 in 6.2 mi Calm Calm - N/A   Scattered Clouds